,,,PA_Meas_PMT16A,,PR_Meas_QMR101_102,,RH_Meas_QMH101,,SR_Meas_QMS101,,TA_Meas_QMH101,,GenWind,,GenWind,
date,time,status,PA,status,PR,status,RH,status,SR,status,TA,status,DirAvg,status,SpdAvg,
2010-05-11, 00:00:04,VALID,1002.44,VALID,0,VALID,94.2701,VALID,0.100563,VALID,25.8239,VALID,15,VALID,0.739453,
2010-05-11, 00:01:04,VALID,1002.44,VALID,0,VALID,94.3311,VALID,0.100563,VALID,25.8434,VALID,13,VALID,0.480859,
2010-05-11, 00:02:04,VALID,1002.42,VALID,0,VALID,94.3158,VALID,0.100563,VALID,25.9213,VALID,13,VALID,0.159766,
2010-05-11, 00:03:04,VALID,1002.42,VALID,0,VALID,94.1099,VALID,0,VALID,25.9622,VALID,13,VALID,0.214453,
2010-05-11, 00:04:04,VALID,1002.39,VALID,0,VALID,93.9573,VALID,0.100563,VALID,25.9992,VALID,13,VALID,0.360156,
2010-05-11, 00:05:04,VALID,1002.37,VALID,0,VALID,93.6521,VALID,0.100563,VALID,26.0576,VALID,359,VALID,0.665625,
2010-05-11, 00:06:04,VALID,1002.33,VALID,0,VALID,93.0418,VALID,0.100563,VALID,26.155,VALID,47,VALID,0.599609,
2010-05-11, 00:07:04,VALID,1002.35,VALID,0,VALID,91.9356,VALID,0.100563,VALID,26.2329,VALID,76,VALID,0.125391,
2010-05-11, 00:08:04,VALID,1002.32,VALID,0,VALID,91.0125,VALID,0.100563,VALID,26.2699,VALID,76,VALID,0.0925781,
2010-05-11, 00:09:04,VALID,1002.31,VALID,0,VALID,90.5777,VALID,0.100563,VALID,26.3108,VALID,76,VALID,0.258984,
2010-05-11, 00:10:04,VALID,1002.28,VALID,0,VALID,90.3412,VALID,0.100563,VALID,26.2913,VALID,76,VALID,0.114063,
2010-05-11, 00:11:04,VALID,1002.23,VALID,0,VALID,90.4404,VALID,0.100563,VALID,26.2699,VALID,76,VALID,0.281641,
2010-05-11, 00:12:04,VALID,1002.25,VALID,0,VALID,90.3793,VALID,0.100563,VALID,26.2309,VALID,76,VALID,0.119141,
2010-05-11, 00:13:04,VALID,1002.23,VALID,0,VALID,90.6082,VALID,0.100563,VALID,26.2329,VALID,76,VALID,0.00664063,
2010-05-11, 00:14:04,VALID,1002.23,VALID,0,VALID,90.9286,VALID,0.100563,VALID,26.2134,VALID,76,VALID,0.2125,
2010-05-11, 00:15:04,VALID,1002.26,VALID,0,VALID,92.4163,VALID,0.100563,VALID,26.194,VALID,139,VALID,0.969531,
2010-05-11, 00:16:04,VALID,1002.25,VALID,0,VALID,92.3781,VALID,0.100563,VALID,26.1765,VALID,164,VALID,1.59492,
2010-05-11, 00:17:04,VALID,1002.25,VALID,0,VALID,92.2866,VALID,0.100563,VALID,26.116,VALID,152,VALID,0.973437,
2010-05-11, 00:18:04,VALID,1002.26,VALID,0,VALID,92.8816,VALID,0.100563,VALID,26.0576,VALID,184,VALID,0.583594,
2010-05-11, 00:19:04,VALID,1002.22,VALID,0,VALID,92.9961,VALID,0.100563,VALID,25.9992,VALID,179,VALID,0.629297,
2010-05-11, 00:20:04,VALID,1002.21,VALID,0,VALID,92.9884,VALID,0.100563,VALID,25.9602,VALID,182,VALID,0.958594,
2010-05-11, 00:21:04,VALID,1002.15,VALID,0,VALID,93.2173,VALID,0.100563,VALID,25.9427,VALID,196,VALID,0.568359,
2010-05-11, 00:22:04,VALID,1002.12,VALID,0,VALID,93.3088,VALID,0,VALID,25.9018,VALID,201,VALID,0.719531,
2010-05-11, 00:23:04,VALID,1002.13,VALID,0,VALID,93.3851,VALID,0.100563,VALID,25.8823,VALID,216,VALID,0.79375,
2010-05-11, 00:24:04,VALID,1002.1,VALID,0,VALID,93.4004,VALID,0.100563,VALID,25.8629,VALID,219,VALID,0.444531,
2010-05-11, 00:25:04,VALID,1002.09,VALID,0,VALID,93.4767,VALID,0.100563,VALID,25.8823,VALID,212,VALID,0.123828,
2010-05-11, 00:26:04,VALID,1002.09,VALID,0,VALID,93.5911,VALID,0.100563,VALID,25.9018,VALID,255,VALID,0.657031,
2010-05-11, 00:27:04,VALID,1002.07,VALID,0,VALID,93.82,VALID,0.100563,VALID,25.8609,VALID,7,VALID,0.572656,
2010-05-11, 00:28:04,VALID,1002.04,VALID,0,VALID,93.9268,VALID,0.100563,VALID,25.8219,VALID,7,VALID,0.65625,
2010-05-11, 00:29:04,VALID,1002.04,VALID,0,VALID,93.9649,VALID,0.100563,VALID,25.8239,VALID,7,VALID,0.434766,
2010-05-11, 00:30:04,VALID,1002.03,VALID,0,VALID,94.0107,VALID,0.100563,VALID,25.783,VALID,7,VALID,0.440625,
2010-05-11, 00:31:04,VALID,1002.04,VALID,0,VALID,94.1251,VALID,0.201126,VALID,25.7635,VALID,7,VALID,0.234375,
2010-05-11, 00:32:04,VALID,1002.01,VALID,0,VALID,94.1175,VALID,0.100563,VALID,25.7655,VALID,7,VALID,0.134766,
2010-05-11, 00:33:04,VALID,1002.04,VALID,0,VALID,94.1099,VALID,0.100563,VALID,25.785,VALID,7,VALID,0,
2010-05-11, 00:34:04,VALID,1002.01,VALID,0,VALID,94.2243,VALID,0.100563,VALID,25.7869,VALID,7,VALID,0.728906,
2010-05-11, 00:35:04,VALID,1001.99,VALID,0,VALID,94.354,VALID,0.100563,VALID,25.7655,VALID,7,VALID,0.411328,
2010-05-11, 00:36:04,VALID,1001.99,VALID,0,VALID,94.4684,VALID,0.100563,VALID,25.746,VALID,7,VALID,0.260547,
2010-05-11, 00:37:04,VALID,1002.01,VALID,0,VALID,94.5447,VALID,0,VALID,25.7265,VALID,7,VALID,0.0328125,
2010-05-11, 00:38:04,VALID,1001.98,VALID,0,VALID,94.5523,VALID,0.100563,VALID,25.748,VALID,7,VALID,0,
2010-05-11, 00:39:04,VALID,1001.99,VALID,0,VALID,94.6439,VALID,0.100563,VALID,25.7265,VALID,7,VALID,0,
2010-05-11, 00:40:04,VALID,1001.98,VALID,0,VALID,94.7507,VALID,0.100563,VALID,25.7265,VALID,7,VALID,0.153516,
2010-05-11, 00:41:04,VALID,1001.98,VALID,0,VALID,94.7736,VALID,0.100563,VALID,25.7071,VALID,7,VALID,0.321875,
2010-05-11, 00:42:04,VALID,1001.99,VALID,0,VALID,94.7965,VALID,0.100563,VALID,25.6681,VALID,7,VALID,0.295312,
2010-05-11, 00:43:04,VALID,1001.99,VALID,0,VALID,94.827,VALID,0.100563,VALID,25.6486,VALID,7,VALID,0.211719,
2010-05-11, 00:44:04,VALID,1001.97,VALID,0,VALID,94.8804,VALID,0.100563,VALID,25.6292,VALID,7,VALID,0.0976563,
2010-05-11, 00:45:04,VALID,1001.98,VALID,0,VALID,94.949,VALID,0.100563,VALID,25.6097,VALID,7,VALID,0.157031,
2010-05-11, 00:46:04,VALID,1001.93,VALID,0,VALID,95.0101,VALID,0.100563,VALID,25.5902,VALID,7,VALID,0,
2010-05-11, 00:47:04,VALID,1001.92,VALID,0,VALID,95.1016,VALID,0.100563,VALID,25.5883,VALID,7,VALID,0.139062,
2010-05-11, 00:48:04,VALID,1001.94,VALID,0,VALID,95.1398,VALID,0.100563,VALID,25.6097,VALID,7,VALID,0,
2010-05-11, 00:49:04,VALID,1001.95,VALID,0,VALID,95.2008,VALID,0.100563,VALID,25.6292,VALID,7,VALID,0.265625,
2010-05-11, 00:50:04,VALID,1001.93,VALID,0,VALID,95.2542,VALID,0.100563,VALID,25.6467,VALID,7,VALID,0.297266,
2010-05-11, 00:51:04,VALID,1001.91,VALID,0,VALID,95.2237,VALID,0.100563,VALID,25.6681,VALID,7,VALID,0.244141,
2010-05-11, 00:52:04,VALID,1001.9,VALID,0,VALID,95.1627,VALID,0.100563,VALID,25.6467,VALID,233,VALID,0.157422,
2010-05-11, 00:53:04,VALID,1001.93,VALID,0,VALID,95.1016,VALID,0.100563,VALID,25.7071,VALID,232,VALID,0.194922,
2010-05-11, 00:54:04,VALID,1001.93,VALID,0,VALID,95.0711,VALID,0.100563,VALID,25.7265,VALID,232,VALID,0.119922,
2010-05-11, 00:55:04,VALID,1001.93,VALID,0,VALID,95.0253,VALID,0.100563,VALID,25.7655,VALID,170,VALID,0.578516,
2010-05-11, 00:56:04,VALID,1001.93,VALID,0,VALID,94.9414,VALID,0.100563,VALID,25.785,VALID,170,VALID,0.569141,
2010-05-11, 00:57:04,VALID,1001.93,VALID,0,VALID,94.7583,VALID,0.100563,VALID,25.8044,VALID,170,VALID,0.304688,
2010-05-11, 00:58:04,VALID,1001.91,VALID,0,VALID,94.6439,VALID,0.100563,VALID,25.8219,VALID,170,VALID,0.266016,
2010-05-11, 00:59:04,VALID,1001.88,VALID,0,VALID,94.5295,VALID,0.100563,VALID,25.8629,VALID,83,VALID,0.582031,
2010-05-11, 01:00:04,VALID,1001.9,VALID,0,VALID,94.4532,VALID,0,VALID,25.8843,VALID,83,VALID,0.250781,
2010-05-11, 01:01:04,VALID,1001.87,VALID,0,VALID,94.5218,VALID,0,VALID,25.9038,VALID,83,VALID,0.0921875,
2010-05-11, 01:02:04,VALID,1001.9,VALID,0,VALID,94.4989,VALID,0,VALID,25.9038,VALID,83,VALID,0.297266,
2010-05-11, 01:03:04,VALID,1001.89,VALID,0,VALID,94.4761,VALID,0,VALID,25.9232,VALID,108,VALID,0.516016,
2010-05-11, 01:04:04,VALID,1001.87,VALID,0,VALID,94.4532,VALID,0,VALID,25.9427,VALID,108,VALID,0.122266,
2010-05-11, 01:05:04,VALID,1001.85,VALID,0,VALID,94.4532,VALID,0,VALID,25.9447,VALID,108,VALID,0.402344,
2010-05-11, 01:06:04,VALID,1001.82,VALID,0,VALID,94.4761,VALID,0,VALID,25.9836,VALID,108,VALID,0.219922,
2010-05-11, 01:07:04,VALID,1001.8,VALID,0,VALID,94.5523,VALID,0,VALID,25.9622,VALID,108,VALID,0.195313,
2010-05-11, 01:08:04,VALID,1001.76,VALID,0,VALID,94.6744,VALID,0,VALID,26.0012,VALID,125,VALID,0.304297,
2010-05-11, 01:09:04,VALID,1001.73,VALID,0,VALID,94.888,VALID,0,VALID,26.0596,VALID,129,VALID,0.421484,
2010-05-11, 01:10:04,VALID,1001.73,VALID,0,VALID,94.9796,VALID,0,VALID,26.12,VALID,129,VALID,0.132031,
2010-05-11, 01:11:04,VALID,1001.69,VALID,0,VALID,95.033,VALID,0,VALID,26.0985,VALID,205,VALID,0.314063,
2010-05-11, 01:12:04,VALID,1001.65,VALID,0,VALID,94.9719,VALID,0,VALID,26.0985,VALID,205,VALID,0.1875,
2010-05-11, 01:13:04,VALID,1001.67,VALID,0,VALID,94.888,VALID,0,VALID,26.0985,VALID,205,VALID,0.160156,
2010-05-11, 01:14:04,VALID,1001.62,VALID,0,VALID,94.4837,VALID,0,VALID,26.0791,VALID,205,VALID,0.243359,
2010-05-11, 01:15:04,VALID,1001.6,VALID,0,VALID,93.9115,VALID,0,VALID,26.0791,VALID,205,VALID,0.337109,
2010-05-11, 01:16:04,VALID,1001.6,VALID,0,VALID,93.4538,VALID,0,VALID,26.0401,VALID,205,VALID,0,
2010-05-11, 01:17:04,VALID,1001.58,VALID,0,VALID,93.0647,VALID,0,VALID,26.0401,VALID,205,VALID,0.417969,
2010-05-11, 01:18:04,VALID,1001.57,VALID,0,VALID,92.4544,VALID,0,VALID,26.0791,VALID,205,VALID,0.263672,
2010-05-11, 01:19:04,VALID,1001.59,VALID,0,VALID,92.2408,VALID,0,VALID,26.0791,VALID,205,VALID,0.125,
2010-05-11, 01:20:04,VALID,1001.6,VALID,0,VALID,91.5771,VALID,0,VALID,26.0791,VALID,205,VALID,0.271484,
2010-05-11, 01:21:04,VALID,1001.58,VALID,0,VALID,91.5771,VALID,0,VALID,26.0771,VALID,205,VALID,0.381641,
2010-05-11, 01:22:04,VALID,1001.59,VALID,0,VALID,91.7373,VALID,0,VALID,26.0985,VALID,205,VALID,0,
2010-05-11, 01:23:04,VALID,1001.61,VALID,0,VALID,92.1492,VALID,0,VALID,26.1395,VALID,205,VALID,0.0554687,
2010-05-11, 01:24:04,VALID,1001.6,VALID,0,VALID,92.5917,VALID,0,VALID,26.0985,VALID,205,VALID,0.439844,
2010-05-11, 01:25:04,VALID,1001.56,VALID,0,VALID,92.1569,VALID,0,VALID,26.1005,VALID,205,VALID,0.122656,
2010-05-11, 01:26:04,VALID,1001.52,VALID,0,VALID,92.195,VALID,0,VALID,26.0985,VALID,205,VALID,0.436719,
2010-05-11, 01:27:04,VALID,1001.49,VALID,0,VALID,91.4779,VALID,0,VALID,26.0985,VALID,259,VALID,0.328125,
2010-05-11, 01:28:04,VALID,1001.43,VALID,0,VALID,90.9668,VALID,0,VALID,26.0985,VALID,328,VALID,0.49375,
2010-05-11, 01:29:04,VALID,1001.44,VALID,0,VALID,91.2109,VALID,0,VALID,26.0966,VALID,307,VALID,0.298438,
2010-05-11, 01:30:04,VALID,1001.43,VALID,0,VALID,90.7532,VALID,0,VALID,26.1375,VALID,307,VALID,0.203125,
2010-05-11, 01:31:04,VALID,1001.44,VALID,0,VALID,90.5853,VALID,0,VALID,26.1375,VALID,308,VALID,0.496875,
2010-05-11, 01:32:04,VALID,1001.44,VALID,0,VALID,90.5548,VALID,0,VALID,26.1375,VALID,309,VALID,0.170703,
2010-05-11, 01:33:04,VALID,1001.45,VALID,0,VALID,90.6921,VALID,0,VALID,26.116,VALID,309,VALID,0.283984,
2010-05-11, 01:34:04,VALID,1001.5,VALID,0,VALID,91.0202,VALID,0,VALID,26.1355,VALID,309,VALID,0.0960938,
2010-05-11, 01:35:04,VALID,1001.5,VALID,0,VALID,91.867,VALID,0,VALID,26.157,VALID,309,VALID,0.273438,
2010-05-11, 01:36:04,VALID,1001.53,VALID,0,VALID,92.1416,VALID,0.100563,VALID,26.116,VALID,309,VALID,0.423047,
2010-05-11, 01:37:04,VALID,1001.51,VALID,0,VALID,92.1874,VALID,0,VALID,26.0771,VALID,309,VALID,0.101172,
2010-05-11, 01:38:04,VALID,1001.47,VALID,0,VALID,92.4697,VALID,0,VALID,26.0966,VALID,309,VALID,0.226953,
2010-05-11, 01:39:04,VALID,1001.45,VALID,0,VALID,92.7596,VALID,0,VALID,26.0966,VALID,309,VALID,0.0359375,
2010-05-11, 01:40:04,VALID,1001.41,VALID,0,VALID,92.8816,VALID,0,VALID,26.118,VALID,309,VALID,0.003125,
2010-05-11, 01:41:04,VALID,1001.39,VALID,0,VALID,92.8969,VALID,0,VALID,26.118,VALID,309,VALID,0.0636719,
2010-05-11, 01:42:04,VALID,1001.39,VALID,0,VALID,92.9274,VALID,0,VALID,26.118,VALID,309,VALID,0,
2010-05-11, 01:43:04,VALID,1001.36,VALID,0,VALID,92.9732,VALID,0,VALID,26.118,VALID,309,VALID,0.203516,
2010-05-11, 01:44:04,VALID,1001.37,VALID,0,VALID,92.8816,VALID,0,VALID,26.0966,VALID,309,VALID,0.156641,
2010-05-11, 01:45:04,VALID,1001.36,VALID,0,VALID,92.7824,VALID,0,VALID,26.0985,VALID,309,VALID,0,
2010-05-11, 01:46:04,VALID,1001.34,VALID,0,VALID,92.5841,VALID,0,VALID,26.0771,VALID,309,VALID,0.115234,
2010-05-11, 01:47:04,VALID,1001.33,VALID,0,VALID,92.3705,VALID,0,VALID,26.0985,VALID,242,VALID,0.535156,
2010-05-11, 01:48:04,VALID,1001.27,VALID,0,VALID,90.9439,VALID,0,VALID,26.0791,VALID,230,VALID,0.132813,
2010-05-11, 01:49:04,VALID,1001.25,VALID,0,VALID,90.2344,VALID,0,VALID,26.0576,VALID,188,VALID,0.320703,
2010-05-11, 01:50:04,VALID,1001.26,VALID,0,VALID,89.7538,VALID,0,VALID,26.0576,VALID,162,VALID,0.465625,
2010-05-11, 01:51:04,VALID,1001.21,VALID,0,VALID,90.3565,VALID,0,VALID,26.0791,VALID,118,VALID,0.643359,
2010-05-11, 01:52:04,VALID,1001.2,VALID,0,VALID,90.5396,VALID,0,VALID,26.0791,VALID,140,VALID,0.414844,
2010-05-11, 01:53:04,VALID,1001.23,VALID,0,VALID,90.4633,VALID,0,VALID,26.0206,VALID,129,VALID,0.546094,
2010-05-11, 01:54:04,VALID,1001.24,VALID,0,VALID,90.7226,VALID,0,VALID,25.9622,VALID,124,VALID,1.14492,
2010-05-11, 01:55:04,VALID,1001.23,VALID,0,VALID,92.2179,VALID,0,VALID,25.9232,VALID,130,VALID,1.57891,
2010-05-11, 01:56:04,VALID,1001.23,VALID,0,VALID,92.9503,VALID,0,VALID,25.8629,VALID,130,VALID,0.844531,
2010-05-11, 01:57:04,VALID,1001.22,VALID,0,VALID,93.3088,VALID,0,VALID,25.8239,VALID,100,VALID,1.24922,
2010-05-11, 01:58:04,VALID,1001.22,VALID,0,VALID,93.4843,VALID,0,VALID,25.8259,VALID,106,VALID,1.58828,
2010-05-11, 01:59:04,VALID,1001.23,VALID,0,VALID,93.5835,VALID,0,VALID,25.7869,VALID,126,VALID,1.19219,
2010-05-11, 02:00:04,VALID,1001.26,VALID,0,VALID,93.7666,VALID,0,VALID,25.746,VALID,117,VALID,1.10547,
2010-05-11, 02:01:04,VALID,1001.26,VALID,0,VALID,94.0488,VALID,0,VALID,25.7265,VALID,117,VALID,0.96875,
2010-05-11, 02:02:04,VALID,1001.23,VALID,0,VALID,94.2853,VALID,0,VALID,25.709,VALID,124,VALID,1.50508,
2010-05-11, 02:03:04,VALID,1001.25,VALID,0,VALID,94.1785,VALID,0.100563,VALID,25.6097,VALID,135,VALID,1.70508,
2010-05-11, 02:04:04,VALID,1001.2,VALID,0,VALID,94.0107,VALID,0,VALID,25.5688,VALID,103,VALID,1.0668,
2010-05-11, 02:05:04,VALID,1001.14,VALID,0,VALID,94.1099,VALID,0,VALID,25.6116,VALID,161,VALID,0.785937,
2010-05-11, 02:06:04,VALID,1001.18,VALID,0,VALID,94.2319,VALID,0,VALID,25.5921,VALID,142,VALID,0.612109,
2010-05-11, 02:07:04,VALID,1001.16,VALID,0,VALID,94.3311,VALID,0,VALID,25.5513,VALID,125,VALID,0.987109,
2010-05-11, 02:08:04,VALID,1001.11,VALID,0,VALID,94.1404,VALID,0,VALID,25.5142,VALID,132,VALID,0.811328,
2010-05-11, 02:09:04,VALID,1001.09,VALID,0,VALID,93.7818,VALID,0.100563,VALID,25.4948,VALID,124,VALID,1.28516,
2010-05-11, 02:10:04,VALID,1001.08,VALID,0,VALID,93.7361,VALID,0,VALID,25.4734,VALID,143,VALID,0.914844,
2010-05-11, 02:11:04,VALID,1001.04,VALID,0,VALID,93.6674,VALID,0,VALID,25.4734,VALID,127,VALID,0.928906,
2010-05-11, 02:12:04,VALID,1001,VALID,0,VALID,93.7284,VALID,0.100563,VALID,25.4539,VALID,128,VALID,0.462891,
2010-05-11, 02:13:04,VALID,1000.96,VALID,0,VALID,93.8047,VALID,0,VALID,25.4344,VALID,116,VALID,0.770312,
2010-05-11, 02:14:04,VALID,1000.94,VALID,0,VALID,93.6369,VALID,0,VALID,25.3955,VALID,88,VALID,0.699609,
2010-05-11, 02:15:04,VALID,1000.91,VALID,0,VALID,93.469,VALID,0.100563,VALID,25.3974,VALID,105,VALID,1.01602,
2010-05-11, 02:16:04,VALID,1000.91,VALID,0,VALID,93.6369,VALID,0,VALID,25.3565,VALID,105,VALID,0.626562,
2010-05-11, 02:17:04,VALID,1000.95,VALID,0,VALID,93.7589,VALID,0,VALID,25.3565,VALID,122,VALID,1.37109,
2010-05-11, 02:18:04,VALID,1000.99,VALID,0,VALID,94.0259,VALID,0,VALID,25.337,VALID,110,VALID,1.35,
2010-05-11, 02:19:04,VALID,1001.05,VALID,0,VALID,94.2243,VALID,0,VALID,25.3176,VALID,140,VALID,1.14805,
2010-05-11, 02:20:04,VALID,1001.07,VALID,0,VALID,94.4379,VALID,0,VALID,25.3176,VALID,95,VALID,0.945703,
2010-05-11, 02:21:04,VALID,1001.1,VALID,0,VALID,94.5905,VALID,0,VALID,25.3195,VALID,134,VALID,1.67656,
2010-05-11, 02:22:04,VALID,1001.15,VALID,0,VALID,94.6973,VALID,0,VALID,25.2786,VALID,135,VALID,1.71602,
2010-05-11, 02:23:04,VALID,1001.21,VALID,0,VALID,94.4608,VALID,0,VALID,25.2786,VALID,122,VALID,2.00352,
2010-05-11, 02:24:04,VALID,1001.24,VALID,0,VALID,94.3464,VALID,0.100563,VALID,25.2592,VALID,131,VALID,1.27148,
2010-05-11, 02:25:04,VALID,1001.27,VALID,0,VALID,94.1251,VALID,0,VALID,25.2221,VALID,127,VALID,2.91289,
2010-05-11, 02:26:04,VALID,1001.25,VALID,0,VALID,93.6598,VALID,0,VALID,25.1442,VALID,112,VALID,2.59453,
2010-05-11, 02:27:04,VALID,1001.24,VALID,0,VALID,93.7818,VALID,0,VALID,25.0644,VALID,135,VALID,1.44219,
2010-05-11, 02:28:04,VALID,1001.19,VALID,0.5,VALID,94.0183,VALID,0.100563,VALID,25.0663,VALID,125,VALID,1.125,
2010-05-11, 02:29:04,VALID,1001.17,VALID,0,VALID,94.1099,VALID,0,VALID,24.9866,VALID,110,VALID,1.67188,
2010-05-11, 02:30:04,VALID,1001.18,VALID,0,VALID,94.2548,VALID,0,VALID,24.9282,VALID,123,VALID,1.56914,
2010-05-11, 02:31:04,VALID,1001.15,VALID,0,VALID,94.4379,VALID,0.100563,VALID,24.8892,VALID,110,VALID,1.61133,
2010-05-11, 02:32:04,VALID,1001.19,VALID,0,VALID,94.6591,VALID,0.100563,VALID,24.8697,VALID,118,VALID,1.66406,
2010-05-11, 02:33:04,VALID,1001.16,VALID,0,VALID,94.8728,VALID,0,VALID,24.8308,VALID,124,VALID,1.59414,
2010-05-11, 02:34:04,VALID,1001.21,VALID,0.5,VALID,95.1474,VALID,0,VALID,24.7919,VALID,122,VALID,2.49922,
2010-05-11, 02:35:04,VALID,1001.17,VALID,0,VALID,95.3686,VALID,0.100563,VALID,24.751,VALID,100,VALID,1.93242,
2010-05-11, 02:36:04,VALID,1001.18,VALID,0.5,VALID,95.5288,VALID,0,VALID,24.751,VALID,100,VALID,2.1043,
2010-05-11, 02:37:04,VALID,1001.2,VALID,0.5,VALID,95.628,VALID,0.100563,VALID,24.7529,VALID,106,VALID,1.54961,
2010-05-11, 02:38:04,VALID,1001.17,VALID,0.5,VALID,95.7653,VALID,0,VALID,24.7548,VALID,106,VALID,1.23477,
2010-05-11, 02:39:04,VALID,1001.14,VALID,0.5,VALID,95.895,VALID,0.100563,VALID,24.6945,VALID,102,VALID,1.25859,
2010-05-11, 02:40:04,VALID,1001.16,VALID,0,VALID,96.0323,VALID,0.100563,VALID,24.675,VALID,104,VALID,1.28828,
2010-05-11, 02:41:04,VALID,1001.19,VALID,1,VALID,96.1544,VALID,0.100563,VALID,24.6166,VALID,137,VALID,1.42734,
2010-05-11, 02:42:04,VALID,1001.22,VALID,0,VALID,96.2917,VALID,0,VALID,24.5953,VALID,116,VALID,0.717969,
2010-05-11, 02:43:04,VALID,1001.23,VALID,0.5,VALID,96.3756,VALID,0.100563,VALID,24.5777,VALID,95,VALID,0.885547,
2010-05-11, 02:44:04,VALID,1001.26,VALID,0,VALID,96.4748,VALID,0.100563,VALID,24.5777,VALID,107,VALID,1.08359,
2010-05-11, 02:45:04,VALID,1001.26,VALID,0,VALID,96.5282,VALID,0.100563,VALID,24.5777,VALID,106,VALID,0.79375,
2010-05-11, 02:46:04,VALID,1001.26,VALID,0,VALID,96.6198,VALID,0.100563,VALID,24.5582,VALID,85,VALID,0.888281,
2010-05-11, 02:47:04,VALID,1001.23,VALID,0,VALID,96.6503,VALID,0,VALID,24.5388,VALID,76,VALID,0.352734,
2010-05-11, 02:48:04,VALID,1001.2,VALID,0.5,VALID,96.6961,VALID,0,VALID,24.5388,VALID,46,VALID,0.351953,
2010-05-11, 02:49:04,VALID,1001.18,VALID,0,VALID,96.7266,VALID,0,VALID,24.5582,VALID,54,VALID,0.364062,
2010-05-11, 02:50:04,VALID,1001.15,VALID,0,VALID,96.7647,VALID,0,VALID,24.5582,VALID,82,VALID,0.373828,
2010-05-11, 02:51:04,VALID,1001.16,VALID,0,VALID,96.8258,VALID,0.100563,VALID,24.599,VALID,149,VALID,0.853516,
2010-05-11, 02:52:04,VALID,1001.18,VALID,0,VALID,96.8181,VALID,0,VALID,24.5582,VALID,133,VALID,1.22852,
2010-05-11, 02:53:04,VALID,1001.2,VALID,0.5,VALID,96.8334,VALID,0.100563,VALID,24.5972,VALID,143,VALID,1.03633,
2010-05-11, 02:54:04,VALID,1001.19,VALID,0,VALID,96.8563,VALID,0,VALID,24.5972,VALID,128,VALID,1.24219,
2010-05-11, 02:55:04,VALID,1001.18,VALID,0.5,VALID,96.8868,VALID,0,VALID,24.6185,VALID,144,VALID,0.819141,
2010-05-11, 02:56:04,VALID,1001.13,VALID,0,VALID,96.9173,VALID,0,VALID,24.5777,VALID,148,VALID,1.03867,
2010-05-11, 02:57:04,VALID,1001.13,VALID,0,VALID,96.9097,VALID,0,VALID,24.5758,VALID,130,VALID,0.652344,
2010-05-11, 02:58:04,VALID,1001.12,VALID,0,VALID,96.9173,VALID,0,VALID,24.5972,VALID,147,VALID,0.841016,
2010-05-11, 02:59:04,VALID,1001.12,VALID,0,VALID,96.9173,VALID,0,VALID,24.5758,VALID,137,VALID,0.848047,
2010-05-11, 03:00:04,VALID,1001.13,VALID,0.5,VALID,96.9326,VALID,0,VALID,24.6204,VALID,131,VALID,0.824609,
2010-05-11, 03:01:04,VALID,1001.08,VALID,0,VALID,96.9402,VALID,0,VALID,24.6009,VALID,125,VALID,0.606641,
2010-05-11, 03:02:04,VALID,1001.04,VALID,0,VALID,96.9707,VALID,0,VALID,24.5796,VALID,90,VALID,0.264844,
2010-05-11, 03:03:04,VALID,1001.02,VALID,0,VALID,96.986,VALID,0,VALID,24.5796,VALID,90,VALID,0.021875,
2010-05-11, 03:04:04,VALID,1001,VALID,0,VALID,97.0012,VALID,0,VALID,24.5601,VALID,90,VALID,0.252344,
2010-05-11, 03:05:04,VALID,1000.97,VALID,0,VALID,96.9707,VALID,0,VALID,24.5796,VALID,90,VALID,0.299609,
2010-05-11, 03:06:04,VALID,1001,VALID,0,VALID,96.986,VALID,0,VALID,24.6185,VALID,90,VALID,0.0269531,
2010-05-11, 03:07:04,VALID,1000.99,VALID,0,VALID,96.986,VALID,0,VALID,24.6398,VALID,90,VALID,0,
2010-05-11, 03:08:04,VALID,1000.99,VALID,0,VALID,97.0165,VALID,0,VALID,24.599,VALID,90,VALID,0,
2010-05-11, 03:09:04,VALID,1000.97,VALID,0,VALID,97.0088,VALID,0,VALID,24.599,VALID,90,VALID,0.0976563,
2010-05-11, 03:10:04,VALID,1000.97,VALID,0,VALID,97.0317,VALID,0,VALID,24.6204,VALID,90,VALID,0.139062,
2010-05-11, 03:11:04,VALID,1000.95,VALID,0,VALID,97.0165,VALID,0,VALID,24.6009,VALID,90,VALID,0.112109,
2010-05-11, 03:12:04,VALID,1000.96,VALID,0,VALID,97.0317,VALID,0,VALID,24.599,VALID,90,VALID,0.38125,
2010-05-11, 03:13:04,VALID,1000.95,VALID,0,VALID,97.0317,VALID,0,VALID,24.5796,VALID,90,VALID,0.347266,
2010-05-11, 03:14:04,VALID,1000.95,VALID,0,VALID,97.0394,VALID,0,VALID,24.5777,VALID,90,VALID,0.403516,
2010-05-11, 03:15:04,VALID,1000.92,VALID,0,VALID,97.0317,VALID,0,VALID,24.5777,VALID,90,VALID,0.419922,
2010-05-11, 03:16:04,VALID,1000.9,VALID,0,VALID,97.047,VALID,0.100563,VALID,24.5777,VALID,90,VALID,0.340625,
2010-05-11, 03:17:04,VALID,1000.92,VALID,0,VALID,97.0394,VALID,0.100563,VALID,24.5758,VALID,90,VALID,0.444141,
2010-05-11, 03:18:04,VALID,1000.92,VALID,0,VALID,97.0546,VALID,0,VALID,24.599,VALID,148,VALID,0.689453,
2010-05-11, 03:19:04,VALID,1000.96,VALID,0,VALID,97.0546,VALID,0.100563,VALID,24.5777,VALID,179,VALID,0.884375,
2010-05-11, 03:20:04,VALID,1000.89,VALID,0,VALID,97.0546,VALID,0.100563,VALID,24.5777,VALID,179,VALID,0.507813,
2010-05-11, 03:21:04,VALID,1000.9,VALID,0,VALID,97.047,VALID,0.100563,VALID,24.5777,VALID,179,VALID,0.410937,
2010-05-11, 03:22:04,VALID,1000.88,VALID,0,VALID,97.0699,VALID,0.100563,VALID,24.5777,VALID,179,VALID,0.182422,
2010-05-11, 03:23:04,VALID,1000.89,VALID,0,VALID,97.0622,VALID,0.100563,VALID,24.5777,VALID,179,VALID,0.0898438,
2010-05-11, 03:24:04,VALID,1000.91,VALID,0,VALID,97.0622,VALID,0.100563,VALID,24.5777,VALID,179,VALID,0.194141,
2010-05-11, 03:25:04,VALID,1000.89,VALID,0,VALID,97.0622,VALID,0.100563,VALID,24.5758,VALID,179,VALID,0.282422,
2010-05-11, 03:26:04,VALID,1000.94,VALID,0,VALID,97.0699,VALID,0.100563,VALID,24.5972,VALID,173,VALID,0.323828,
2010-05-11, 03:27:04,VALID,1000.92,VALID,0,VALID,97.0546,VALID,0.100563,VALID,24.5972,VALID,133,VALID,0.313672,
2010-05-11, 03:28:04,VALID,1000.94,VALID,0,VALID,97.0699,VALID,0.100563,VALID,24.5972,VALID,133,VALID,0.433203,
2010-05-11, 03:29:04,VALID,1000.93,VALID,0,VALID,97.0928,VALID,0.100563,VALID,24.5972,VALID,111,VALID,0.34375,
2010-05-11, 03:30:04,VALID,1000.93,VALID,0,VALID,97.0775,VALID,0,VALID,24.5796,VALID,87,VALID,0.508203,
2010-05-11, 03:31:04,VALID,1000.91,VALID,0,VALID,97.0775,VALID,0,VALID,24.5796,VALID,82,VALID,0.330469,
2010-05-11, 03:32:04,VALID,1000.87,VALID,0,VALID,97.0851,VALID,0,VALID,24.5796,VALID,82,VALID,0.365625,
2010-05-11, 03:33:04,VALID,1000.85,VALID,0,VALID,97.1004,VALID,0,VALID,24.5796,VALID,53,VALID,0.508203,
2010-05-11, 03:34:04,VALID,1000.84,VALID,0,VALID,97.0851,VALID,0,VALID,24.5796,VALID,47,VALID,0.401172,
2010-05-11, 03:35:04,VALID,1000.83,VALID,0,VALID,97.0775,VALID,0,VALID,24.5796,VALID,36,VALID,0.346875,
2010-05-11, 03:36:04,VALID,1000.82,VALID,0,VALID,97.0775,VALID,0,VALID,24.5796,VALID,36,VALID,0.00625,
2010-05-11, 03:37:04,VALID,1000.8,VALID,0,VALID,97.0928,VALID,0,VALID,24.5796,VALID,36,VALID,0.194531,
2010-05-11, 03:38:04,VALID,1000.76,VALID,0,VALID,97.0851,VALID,0,VALID,24.5796,VALID,36,VALID,0.274219,
2010-05-11, 03:39:04,VALID,1000.76,VALID,0,VALID,97.0928,VALID,0,VALID,24.5796,VALID,36,VALID,0.315234,
2010-05-11, 03:40:04,VALID,1000.73,VALID,0,VALID,97.0928,VALID,0,VALID,24.5796,VALID,36,VALID,0.498047,